User: anonymous   Login
Location: Caltech
(34.1382°N, 118.1253°W)
Time: 00:28:41
(UTC-07:00)
Language:

Cosmos 1975 - Orbit

View from above orbital plane
View from above orbital plane
View from above satellite
View from above satellite

Ground track
Ground track

The orbit data is extracted from the following two-line orbital elements,

1 19573U 88093A   18115.90183446 +.00000037 +00000-0 +60481-6 0  9999
2 19573 082.5228 042.8658 0013113 318.6548 041.3684 15.04451060585685
Epoch (UTC): 25 April 2018 21:38:38
Eccentricity: 0.0013113
inclination: 82.5228°
perigee height: 544 km
apogee height: 562 km
right ascension of ascending node: 42.8658°
argument of perigee: 318.6548°
revolutions per day: 15.04451060
mean anomaly at epoch: 41.3684°
orbit number at epoch: 58568

The dashed part of the orbit path shows where the satellite is in the earth's shadow,  

DLR